Broomfield, CO

10:21 PM MST on January 19, 2018 (GMT -0700)
Jeffco

Weather History for KBJC - March, 2013

Change the Weather History Date:

Sunday, March 3, 2013

  Actual Average Record
Temperature  
Mean Temperature 53 °F -  
Max Temperature 64 °F 45 °F 71 °F (2009)
Min Temperature 42 °F 25 °F 5 °F (2002)
Degree Days  
Heating Degree Days 12    
Growing Degree Days 3 (Base 50)    
Moisture  
Dew Point 17 °F    
Average Humidity 27    
Maximum Humidity 46    
Minimum Humidity 12    
Precipitation  
Precipitation 0.00 in - - ()
Sea Level Pressure  
Sea Level Pressure 29.81 in    
Wind  
Wind Speed 10 mph (West)    
Max Wind Speed 25 mph    
Max Gust Speed 33 mph    
Visibility 11 miles    
Events      
Averages and records for this station are not official NWS values.
T = Trace of Precipitation, MM = Missing Value Source: NWS Daily Summary

Daily Weather History Graph

Daily Weather History Graph

Search for Another Location

Airport or City:

Trip Planner

Search our weather history database for the weather conditions in past years. The results will help you decide how hot, cold, wet, or windy it might be!

Date:

Astronomy

Mar. 03, 2013 Rise Set
Actual Time 6:30 AM MST 5:54 PM MST
Civil Twilight 6:03 AM MST 6:22 PM MST
Nautical Twilight 5:31 AM MST 6:53 PM MST
Astronomical Twilight 5:00 AM MST 7:24 PM MST
Moon No Moon Rise 9:48 AM MST (3/3)
Length of Visible Light 12h 18m
Length of Day
11h 24m
Waning Gibbous, 63% of the Moon is Illuminated
Mar 3
Waning Gibbous
Mar 4
Last Quarter
Mar 11
New
Mar 19
First Quarter
Mar 27
Full

Hourly Weather History & Observations

Time (MST) Temp. Windchill Dew Point Humidity Pressure Visibility Wind Dir Wind Speed Gust Speed Precip Events Conditions
12:52 AM 42.8 °F 39.3 °F 23.0 °F 46% 30.01 in 10.0 mi SW 5.8 mph - N/A   Clear
1:16 AM 42.8 °F 38.6 °F 23.0 °F 46% 29.99 in 10.0 mi WSW 6.9 mph - N/A   Clear
1:36 AM 42.8 °F 41.1 °F 21.2 °F 42% 29.98 in 10.0 mi SW 3.5 mph - N/A   Clear
1:55 AM 42.8 °F 41.1 °F 21.2 °F 42% 29.97 in 10.0 mi South 3.5 mph - N/A   Clear
2:16 AM 42.8 °F 39.3 °F 21.2 °F 42% 29.95 in 10.0 mi West 5.8 mph - N/A   Clear
2:36 AM 42.8 °F 38.0 °F 19.4 °F 39% 29.94 in 10.0 mi WSW 8.1 mph - N/A   Clear
2:48 AM 51.8 °F - 14.0 °F 22% 29.92 in 10.0 mi West 13.8 mph 20.7 mph N/A   Clear
3:15 AM 50.0 °F - 14.0 °F 24% 29.91 in 10.0 mi West 12.7 mph 24.2 mph N/A   Clear
3:36 AM 46.4 °F 41.9 °F 14.0 °F 27% 29.90 in 10.0 mi SW 9.2 mph 17.3 mph N/A   Clear
3:56 AM 53.6 °F - 12.2 °F 19% 29.90 in 10.0 mi WSW 6.9 mph - N/A   Clear
4:16 AM 51.8 °F - 12.2 °F 21% 29.88 in 10.0 mi WSW 17.3 mph 21.9 mph N/A   Clear
4:29 AM 50.0 °F - 14.0 °F 24% 29.88 in 10.0 mi SSW 9.2 mph 13.8 mph N/A   Clear
4:56 AM 51.8 °F - 14.0 °F 22% 29.87 in 10.0 mi SW 9.2 mph 17.3 mph N/A   Clear
5:45 AM 53.6 °F - 12.2 °F 19% 29.85 in 15.0 mi WSW 13.8 mph 20.7 mph N/A   Mostly Cloudy
6:45 AM 55.4 °F - 8.6 °F 15% 29.84 in 20.0 mi WNW 11.5 mph 26.5 mph N/A   Mostly Cloudy
7:49 AM 51.8 °F - 15.8 °F 24% 29.84 in 70.0 mi West 11.5 mph - N/A   Mostly Cloudy
8:47 AM 53.6 °F - 17.6 °F 24% 29.84 in 70.0 mi West 12.7 mph 19.6 mph N/A   Overcast
9:55 AM 57.2 °F - 12.2 °F 17% 29.82 in 50.0 mi WSW 15.0 mph 20.7 mph N/A   Mostly Cloudy
10:50 AM 60.8 °F - 12.2 °F 15% 29.80 in 50.0 mi West 15.0 mph 28.8 mph N/A   Mostly Cloudy
11:49 AM 62.6 °F - 12.2 °F 14% 29.76 in 50.0 mi West 20.7 mph 27.6 mph N/A   Mostly Cloudy
12:50 PM 62.6 °F - 10.4 °F 13% 29.72 in 50.0 mi WSW 21.9 mph 26.5 mph N/A   Mostly Cloudy
1:50 PM 60.8 °F - 14.0 °F 16% 29.69 in 50.0 mi WSW 24.2 mph 33.4 mph N/A   Mostly Cloudy
2:45 PM 64.4 °F - 10.4 °F 12% 29.69 in 50.0 mi WNW 18.4 mph 28.8 mph N/A   Mostly Cloudy
3:47 PM 60.8 °F - 15.8 °F 17% 29.67 in 50.0 mi WNW 25.3 mph 33.4 mph N/A   Mostly Cloudy
4:46 PM 57.2 °F - 15.8 °F 20% 29.67 in 60.0 mi West 24.2 mph 29.9 mph N/A   Mostly Cloudy
5:47 PM 53.6 °F - 17.6 °F 24% 29.70 in 40.0 mi WNW 17.3 mph 23.0 mph N/A   Mostly Cloudy
6:50 PM 51.8 °F - 19.4 °F 28% 29.71 in 40.0 mi WNW 17.3 mph 24.2 mph N/A   Mostly Cloudy
7:48 PM 50.0 °F - 19.4 °F 30% 29.72 in 30.0 mi WSW 5.8 mph - N/A   Mostly Cloudy
8:55 PM 48.2 °F - 19.4 °F 32% 29.70 in 30.0 mi WNW 8.1 mph - N/A   Mostly Cloudy
10:15 PM 46.4 °F - 19.4 °F 34% 29.70 in 10.0 mi Calm Calm - N/A   Clear
10:36 PM 46.4 °F 45.2 °F 19.4 °F 34% 29.69 in 10.0 mi ESE 3.5 mph - N/A   Scattered Clouds
10:56 PM 46.4 °F 44.3 °F 19.4 °F 34% 29.70 in 10.0 mi ENE 4.6 mph - N/A   Scattered Clouds
11:16 PM 46.4 °F 44.3 °F 21.2 °F 37% 29.68 in 10.0 mi NNE 4.6 mph - N/A   Clear
11:35 PM 46.4 °F 42.4 °F 21.2 °F 37% 29.68 in 10.0 mi NE 8.1 mph - N/A   Clear
11:56 PM 46.4 °F 44.3 °F 21.2 °F 37% 29.69 in 10.0 mi North 4.6 mph - N/A   Clear